Regional Weather Roundup
Issued by NWS

Home | Current Version | Previous Version | Graphics & Text | Print | Product List | Glossary Off
Versions: 1 2 3 4 5 6 7 8 9 10 11 12 13 14 15 16 17 18 19 20 21 22 23 24 25 26 27 28 29 30 31 32 33 34 35 36 37 38 39 40 41 42 43 44 45 46 47 48 49 50

000
ASUS43 KFSD 230902
RWRSD

WEATHER ROUNDUP FOR SOUTH DAKOTA
NATIONAL WEATHER SERVICE SIOUX FALLS SD
400 AM CDT SUN APR 23 2017

NOTE: "FAIR" INDICATES FEW OR NO CLOUDS BELOW 12,000 FEET WITH NO
SIGNIFICANT WEATHER AND/OR OBSTRUCTIONS TO VISIBILITY.


SDZ001>005-009-010-012>017-231000-
NORTHWEST AND NORTH CENTRAL SOUTH DAKOTA

CITY           SKY/WX    TMP DP  RH WIND       PRES   REMARKS
BUFFALO          N/A     42  41  96 NE20      29.85F
FAITH            N/A     43  36  76 S14       29.93F
MOBRIDGE       CLOUDY    38  32  79 E24G32    29.99S
$$

SDZ012>016-024>037-041>051-057-063-072>074-231000-
SOUTHWEST AND SOUTH CENTRAL SOUTH DAKOTA

CITY           SKY/WX    TMP DP  RH WIND       PRES   REMARKS
RAPID CTY ARPT CLOUDY    45  32  60 SE10      29.95F
PIERRE         CLEAR     48  30  49 SW12      29.99F
CUSTER         CLOUDY    40  28  62 SW5       30.00F
ELLSWORTH AFB  CLOUDY    45  32  60 S12       29.93F HAZE
PHILIP         CLEAR     51  33  50 S15       29.97F
PINE RIDGE     CLOUDY    44  32  62 S13       30.01F
SPEARFISH      FAIR      54  30  40 SW10G18   29.90F
WINNER         FAIR      46  32  58 SW13      30.06F
$$

SDZ004>011-016>023-039-040-231000-
NORTHEAST SOUTH DAKOTA

CITY           SKY/WX    TMP DP  RH WIND       PRES   REMARKS
ABERDEEN       CLOUDY    35  30  82 NE13      30.09F WCI  26
WATERTOWN      PTCLDY    43  36  76 CALM      30.07S
BROOKINGS      CLEAR     43  35  73 S8        30.08F
SISSETON         N/A     38  36  92 N10       30.11S
$$

SDZ017-020-022-023-036>040-048>070-231000-
SOUTHEAST SOUTH DAKOTA

CITY           SKY/WX    TMP DP  RH WIND       PRES   REMARKS
SIOUX FALLS    CLEAR     49  35  58 SW6       30.11F
HURON          CLEAR     47  37  68 S13       30.04F
CHAMBERLAIN    CLEAR     49  37  61 S12       30.05F
MITCHELL       CLEAR     49  36  61 S13       30.08F
YANKTON        CLEAR     48  30  49 SW9       30.13S
$$

ABBREVIATIONS USED IN REMARKS
   TC - TEMPERATURE IN CELSIUS
  WCI - WIND CHILL INDEX
   HX - HEAT INDEX
  VSB - VISIBILITY





USA.gov is the U.S. government's official web portal to all federal, state and local government web resources and services.